Regional Weather Roundup
Issued by NWS Green Bay, WI

Home | Current Version | Previous Version | Graphics & Text | Print | Product List | Glossary Off
Versions: 1 2 3 4 5 6 7 8 9 10 11 12 13 14 15 16 17 18 19 20 21 22 23 24 25 26 27 28 29 30 31 32 33 34 35 36 37 38 39 40 41 42 43 44 45 46 47 48 49 50

000
ASUS43 KGRB 271411
RWRGRB

NORTH-CENTRAL AND NORTHEAST WISCONSIN REGIONAL WEATHER ROUNDUP
NATIONAL WEATHER SERVICE GREEN BAY WI
900 AM CDT SAT AUG 27 2016

WIZ005-009-010>012-018-019-271500-
NORTH CENTRAL WISCONSIN

CITY           SKY/WX    TMP DP  RH WIND       PRES   REMARKS
IRONWOOD       MOSUNNY   63  54  72 CALM      30.13S
MANITOWISH WTR CLOUDY    60  58  93 SE5       30.14S
ARBOR VITAE    CLOUDY    62  57  82 SE5       30.15R
EAGLE RIVER    CLOUDY    61  57  85 S5        30.14F
LAND O LAKES   CLOUDY    60  56  85 CALM      30.15F
RHINELANDER    MOSUNNY   62  58  86 S7        30.15F
PHILLIPS       MOSUNNY   60  56  85 CALM      30.13S
ANTIGO         CLOUDY    59  57  94 CALM      30.15F
TOMAHAWK       MOSUNNY   61  56  84 S3        30.14F
MERRILL        MOSUNNY   61  59  93 S6        30.14S
$$

WIZ013-073-271500-
NORTHEAST WISCONSIN

CITY           SKY/WX    TMP DP  RH WIND       PRES   REMARKS
IRON MOUNTAIN  CLOUDY    61  58  90 S3        30.14S
MARINETTE      LGT RAIN N/A N/A N/A MISG        N/A
OCONTO         CLOUDY    62  61  96 CALM      30.13F
$$

WIZ017-030-035>037-045-271500-
CENTRAL WISCONSIN

CITY           SKY/WX    TMP DP  RH WIND       PRES   REMARKS
MEDFORD        CLOUDY    61  61 100 CALM      30.13S
WAUSAU         CLOUDY    60  58  92 SE8       30.12F
MOSINEE        CLOUDY    59  59 100 E3        30.14S
MARSHFIELD     MOSUNNY   62  58  86 E8        30.11F
WISC RAPIDS    CLOUDY    62  59  90 E7        30.13S
STEVENS POINT  RAIN      59  57  93 E6        30.14S
WAUPACA        LGT RAIN  64  64  98 E7        30.14R
SHAWANO        LGT RAIN  63  60  88 E5        30.14S
CLINTONVILLE   LGT RAIN  61  59  94 E5        30.14S
WAUTOMA        LGT RAIN  62  60  93 E7        30.12F
$$

WIZ038-039-048-051-271500-
FOX VALLEY

CITY           SKY/WX    TMP DP  RH WIND       PRES   REMARKS
NWS GREEN BAY  LGT RAIN  62  62 100 E3        30.14S
APPLETON       LGT RAIN  61  61 100 E6        30.12F
OSHKOSH        LGT RAIN  62  60  93 SE7       30.12F
FOND DU LAC    LGT RAIN  62  60  93 MISG      30.12F
$$

WIZ022-050-052-271500-
EAST CENTRAL WISCONSIN

CITY           SKY/WX    TMP DP  RH WIND       PRES   REMARKS
EPHRAIM        LGT RAIN  62  60  94 CALM      30.15R
WASHINGTON ISL NOT AVBL
STURGEON BAY   LGT RAIN  62  60  93 SE8       30.15S
MANITOWOC      HVY RAIN  60  58  92 MISG      30.15F FOG
SHEBOYGAN      LGT RAIN  61  59  93 E8        30.13F
$$

LMZ563-521-522-541>543-271500-
LAKESHORE

STATION/POSITION TIME  TEMP    WIND        PRES    VSBY  WAVE
                       AIR SEA DIR/SP/G                  HT/PER
                 (UTC) (F)     (DEG/KT/KT) (MB)    (MI)  (FT/S)
SHEBOYGAN LKSHOR 1400   60      50/  7/  8 1019.8F
KEWAUNEE LKSHORE 1300   61      70/  2/  4 1020.3R
NORTHPORT PIER   1300   65      40/  2/  3 1020.7
N MID LAKE BUOY  1350   67 69  160/ 10/ 14 1020.5R         1/ 3
S GREEN BAY BUOY 1330   65 71  110/  8/  8 1020.1R
SISTER BAY LKSHO 1307   64        CALM       N/A
CHAMBERS ISLAND  1340   64      CALM  /  2 1020.7S
MENOMINEE LKSHOR 1300   65     360/  4/  4 1019.7F
$$



USA.gov is the U.S. government's official web portal to all federal, state and local government web resources and services.